Location: Domont
(49.0278°N, 2.3264°E)
Time: 17:01:55
(UTC+00:00)

UWE-3 - Pass Details

Date: 01 July 2022
Orbit: 583 x 677 km, 97.7° (Epoch: 10 August)

Event Time Altitude Azimuth Distance (km) Brightness Sun altitude
Rises 02:11:40 0° 28° (NNE) 2,887 ? -11.6°
Reaches altitude 10° 02:14:29 10° 47° (NE) 1,995 ? -11.4°
Maximum altitude 02:17:26 18° 91° (E) 1,557 ? -11.1°
Drops below altitude 10° 02:20:26 10° 134° (SE) 2,024 ? -10.9°
Sets 02:23:18 0° 153° (SSE) 2,946 ? -10.6°
